EW9034 Weather Reports


Display with metric or nautical units.
time (UTC)temp
F
wind
direction
speed
MPH
gust
MPH
rain 1hr
in
rain 24hr
in
rain mn
in
humidity
%
barometer
mb
20260903163004 67 188 11.0 20.0 0.00 0.00 0.00 50 1000.9
20260903161504 67 229 11.0 20.0 0.00 0.00 0.00 52 1000.9
20260903160004 66 222 10.0 22.0 0.00 0.00 0.00 50 1001.0
20260903154559 65 160 10.0 17.0 0.00 0.00 0.00 52 1000.9
20260903153056 63 215 8.0 18.0 0.00 0.00 0.00 55 1000.8
20260903151554 62 217 10.0 19.0 0.00 0.00 0.00 56 1000.6
20260903150053 61 232 10.0 21.0 0.00 0.00 0.00 56 1000.4
20260903144548 61 198 11.0 19.0 0.00 0.00 0.00 57 1000.4
20260903143142 60 180 10.0 21.0 0.00 0.00 0.00 58 1000.5
20260903141539 59 215 10.0 15.0 0.00 0.00 0.00 58 1000.1
20260903140037 59 189 9.0 16.0 0.00 0.00 0.00 58 999.8
20260903134533 59 244 8.0 22.0 0.00 0.00 0.00 59 999.7
20260903133029 59 227 10.0 19.0 0.00 0.00 0.00 59 999.6
20260903131526 58 217 12.0 19.0 0.00 0.00 0.00 60 999.4
20260903130026 58 186 13.0 19.0 0.00 0.00 0.00 59 999.2
20260903124519 58 202 14.0 25.0 0.00 0.00 0.00 59 999.1
20260903123020 59 227 14.0 26.0 0.00 0.00 0.00 58 999.0
20260903121520 58 193 13.0 24.0 0.00 0.00 0.00 60 998.8
20260903120017 57 178 11.0 19.0 0.00 0.00 0.00 61 999.0
20260903114517 58 191 12.0 20.0 0.00 0.00 0.00 59 998.7
20260903113026 58 203 14.0 20.0 0.00 0.00 0.00 60 998.7
20260903111514 59 209 15.0 25.0 0.00 0.00 0.00 58 998.7
20260903110022 58 182 18.0 27.0 0.00 0.00 0.00 60 998.8
20260903104512 58 192 11.0 20.0 0.00 0.00 0.00 61 998.9
20260903103011 58 173 11.0 22.0 0.00 0.00 0.00 62 998.5
20260903101510 58 192 12.0 19.0 0.00 0.00 0.00 62 998.4
20260903100007 58 212 12.0 21.0 0.00 0.00 0.00 64 998.5
20260903094515 57 197 11.0 24.0 0.00 0.00 0.00 66 998.6
20260903093004 56 207 10.0 15.0 0.00 0.00 0.00 68 998.8
20260903091503 55 201 7.0 12.0 0.00 0.00 0.00 73 998.9
20260903090001 54 190 4.0 11.0 0.00 0.00 0.00 75 998.8
20260903084558 55 185 5.0 9.0 0.00 0.00 0.00 74 998.6
20260903083059 56 203 10.0 15.0 0.00 0.00 0.00 73 998.6
20260903081554 55 209 9.0 16.0 0.00 0.00 0.00 74 998.5
20260903080051 56 213 9.0 20.0 0.00 0.00 0.00 74 998.5
20260903074559 56 229 12.0 19.0 0.00 0.00 0.00 74 998.3
20260903073048 56 227 12.0 18.0 0.00 0.00 0.00 74 998.2
20260903071551 56 202 11.0 19.0 0.00 0.00 0.00 74 998.1
20260903070044 56 190 9.0 17.0 0.00 0.00 0.00 72 998.2
20260903064543 57 204 11.0 21.0 0.00 0.00 0.00 73 998.2
20260903063041 57 198 11.0 23.0 0.00 0.00 0.00 76 998.4
20260903061549 56 190 13.0 21.0 0.00 0.00 0.00 79 998.6
20260903060033 55 187 12.0 17.0 0.00 0.00 0.00 75 997.9
20260903054542 56 187 8.0 21.0 0.00 0.00 0.00 70 998.3
20260903053055 55 183 8.0 13.0 0.00 0.00 0.00 72 998.6
20260903051532 55 168 7.0 13.0 0.00 0.00 0.00 73 998.9
20260903050031 55 170 6.0 11.0 0.00 0.00 0.00 73 999.0
20260903044533 56 190 6.0 10.0 0.00 0.00 0.00 72 999.3
20260903043030 57 190 5.0 10.0 0.00 0.00 0.00 69 999.2
20260903041531 59 216 7.0 16.0 0.00 0.00 0.00 66 999.1
20260903040029 61 197 13.0 21.0 0.00 0.00 0.00 63 998.8
20260903034528 64 223 17.0 34.0 0.00 0.00 0.00 61 998.6
20260903033027 62 158 6.0 8.0 0.00 0.00 0.00 63 997.6
20260903031527 64 165 2.0 6.0 0.00 0.00 0.00 63 997.4
20260903030037 64 171 2.0 6.0 0.00 0.00 0.00 58 997.4
20260903024537 66 221 0.0 2.0 0.00 0.00 0.00 54 997.3
20260903023026 67 221 2.0 9.0 0.00 0.00 0.00 53 997.1
20260903021531 67 240 8.0 17.0 0.00 0.00 0.00 53 997.9
20260903020027 67 237 5.0 11.0 0.00 0.00 0.00 54 998.5
20260903014523 68 196 10.0 24.0 0.00 0.00 0.00 53 999.1
20260903013024 68 205 12.0 26.0 0.00 0.00 0.00 53 999.1
20260903011537 70 215 21.0 38.0 0.00 0.00 0.00 49 999.2
20260903010122 74 207 19.0 36.0 0.00 0.00 0.00 41 998.6
20260903004529 78 205 25.0 44.0 0.00 0.00 0.00 34 998.1
20260903003021 81 188 8.0 14.0 0.00 0.00 0.00 31 996.9
20260903001520 81 150 8.0 15.0 0.00 0.00 0.00 31 996.8
20260903000018 82 165 11.0 17.0 0.00 0.00 0.00 30 996.7
20260902234520 83 144 5.0 12.0 0.00 0.00 0.00 30 996.5
20260902233028 84 175 9.0 14.0 0.00 0.00 0.00 29 996.3
20260902231518 83 188 9.0 13.0 0.00 0.00 0.00 30 996.2
20260902230015 82 182 5.0 10.0 0.00 0.00 0.00 32 996.3
20260902224514 82 163 6.0 15.0 0.00 0.00 0.00 32 996.6
20260902223013 83 208 6.0 11.0 0.00 0.00 0.00 31 996.8
20260902221516 84 160 6.0 14.0 0.00 0.00 0.00 29 996.9
20260902220010 84 164 10.0 15.0 0.00 0.00 0.00 30 996.9
20260902214505 83 163 7.0 11.0 0.00 0.00 0.00 33 997.2
20260902213003 82 171 8.0 13.0 0.00 0.00 0.00 31 997.3
20260902211502 83 160 10.0 14.0 0.00 0.00 0.00 32 997.5
20260902204557 81 196 6.0 11.0 0.00 0.00 0.00 34 997.8
20260902203056 81 200 7.0 14.0 0.00 0.00 0.00 33 997.8
20260902201619 80 189 4.0 12.0 0.00 0.00 0.00 33 998.0
20260902194548 81 32 2.0 4.0 0.00 0.00 0.00 39 998.4
20260902193045 78 34 2.0 5.0 0.00 0.00 0.00 46 998.7
20260902191545 78 40 2.0 5.0 0.00 0.00 0.00 45 998.8
20260902190040 76 43 3.0 6.0 0.00 0.00 0.00 44 999.2
20260902184537 73 42 3.0 7.0 0.00 0.00 0.00 47 999.3
20260902183044 72 45 4.0 6.0 0.00 0.00 0.00 49 999.3
20260902181534 73 44 4.0 6.0 0.00 0.00 0.00 45 999.4
20260902180033 73 41 4.0 8.0 0.00 0.00 0.00 47 999.5
20260902174531 72 30 4.0 9.0 0.00 0.00 0.00 53 999.6
20260902173031 71 355 3.0 6.0 0.00 0.00 0.00 51 999.6
20260902171530 72 340 2.0 4.0 0.00 0.00 0.00 50 999.6
20260902170028 72 335 3.0 6.0 0.00 0.00 0.00 54 999.9
20260902164526 71 246 2.0 5.0 0.00 0.00 0.00 55 999.8